Location: Liberec
(50.7830°N, 15.0500°E)
Time: 04:41:11
(UTC+02:00)

ISS - Pass Details

Date: 21 May 2021
Orbit: 417 x 422 km, 51.6° (Epoch: 13 June)

Event Time Altitude Azimuth Distance (km) Brightness Sun altitude
Rises 23:44:42 0° 283° (WNW) 2,368 0.5 -17.1°
Reaches altitude 10° 23:46:48 10° 282° (WNW) 1,504 -0.6 -17.2°
Maximum altitude 23:50:10 80° 196° (SSW) 432 -3.9 -17.4°
Enters shadow 23:51:11 42° 116° (ESE) 612 -3.3 -17.4°
